Other Public Products
Issued by NWS Grand Forks, ND

Home | Current Version | Previous Version | Graphics & Text | Print | Product List | Glossary On
Versions: 1 2 3 4 5 6 7 8 9 10 11 12 13 14 15 16 17 18 19 20 21 22 23 24 25 26 27 28 29 30 31 32 33 34 35 36 37 38 39 40 41 42 43 44 45 46 47 48 49 50
000
FPUS83 KFGF 212310
OPUFGF
PRAIRIE TO PINES WEATHER ROUNDUP
NATIONAL WEATHER SERVICE EASTERN NORTH DAKOTA/GRAND FORKS ND
500 PM CST TUE FEB 21 2017

 **SATELLITE DATA USED TO AUGMENT SKY COVER AT AUTOMATED STATIONS**
 *****  WEATHER ACROSS EASTERN NORTH DAKOTA  *****

CITY           SKY/WX    TMP DP  RH WIND       PRES   REMARKS
GRAND FORKS    CLOUDY    37  32  82 NW3       29.66F HAZE
GRAND FORKS AF FOG       34  34  99 NW3       29.67R VSB 0
GRAND CITY NWS NOT AVBL
BUXTON         NOT AVBL
DEVILS LAKE    CLOUDY    37  32  82 SW7       29.66R
FARGO          MOCLDY    46  40  79 SW5       29.65F
WAHPETON ARPT  FAIR      52  41  66 NW5       29.68R
$$

 *****  WEATHER ACROSS CENTRAL AND WESTERN NORTH DAKOTA  *****

CITY           SKY/WX    TMP DP  RH WIND       PRES   REMARKS
JAMESTOWN      CLOUDY    45  37  73 W5        29.65F
BISMARCK       PTSUNNY   49  37  63 E3        29.65F
MINOT          CLOUDY    45  36  70 SW7       29.63F
MINOT AFB      FAIR      38  34  85 W5        29.62S
GARRISON         N/A     42  37  82 NW9       29.64F
WILLISTON      CLOUDY    45  32  60 W8        29.63S
DICKINSON      PTSUNNY   50  33  52 NE8       29.62F
HETTINGER      PTSUNNY   61  34  36 N10       29.63S
$$

 *****  OTHER OBSERVATIONS NORTHEAST NORTH DAKOTA  *****

CITY           SKY/WX    TMP DP  RH WIND       PRES   REMARKS
WALHALLA       NOT AVBL
LANGDON        NOT AVBL
CAVALIER       FOG       32  32 100 N6        29.68S VSB<1/4
GRAFTON        FOG       30  30 100 SW5       29.69S VSB<1/4
CANDO          NOT AVBL
FORT TOTTEN    NOT AVBL
ROLLA          FAIR      32  32 100 S5        29.65R
RUGBY            N/A     34  32  93 S3        29.65S
 ***** THE ABOVE OBSERVATIONS ARE NON NWS ARE NOT QUALITY
        CONTROLLED AND MAY MIS-REPORT RAIN FOR SNOW...
$$

 *****  OTHER OBSERVATIONS SOUTHEAST NORTH DAKOTA *****

CITY           SKY/WX    TMP DP  RH WIND       PRES   REMARKS
COOPERSTOWN    FAIR      37  36  93 W8        29.67R
VALLEY CITY    CLOUDY    45  45 100 W3        29.68S
OAKES          NOT AVBL
GWINNER        FAIR      54  43  66 NW6       29.68R
SHEYENNE NWR     N/A     51  39  63 W5        29.95
BUFFALO        NOT AVBL
WYNDMERE       NOT AVBL
 ***** THE ABOVE OBSERVATIONS ARE NON NWS ARE NOT QUALITY
       CONTROLLED AND MAY MIS-REPORT RAIN FOR SNOW...
$$

  *****  WEATHER ACROSS NORTHERN MINNESOTA  *****

CITY           SKY/WX    TMP DP  RH WIND       PRES   REMARKS
FLAG ISLAND    FAIR      32  30  93 CALM      29.67F FOG
WARROAD        FAIR      32  28  86 N3        29.67S
ROSEAU         FAIR      36  30  80 CALM      29.66S
HALLOCK        FAIR      34  34 100 N3        29.66F
THF RVR FALLS  FAIR      42  37  82 CALM      29.66S
HALSTAD          N/A     42  39  88 N5          N/A
FOSSTON        FAIR      39  36  87 W5        29.67S
BAUDETTE       FAIR      41  34  76 CALM      29.65S
WASKISH        FAIR      46  36  66 CALM      29.65R
CROOKSTON      FAIR      37  37 100 CALM      29.67F FOG
$$
  *****  WEATHER ACROSS CENTRAL AND WEST MINNESOTA  *****

CITY           SKY/WX    TMP DP  RH WIND       PRES   REMARKS
BEMIDJI        FAIR      46  34  62 S6        29.64S
PARK RAPIDS    FAIR      42  34  73 SW7       29.66S
WADENA         FAIR      46  37  71 W7        29.67S
DETROIT LAKES  FAIR      45  37  76 CALM      29.67F
MOORHEAD       FAIR      46  37  71 CALM      29.67F
FERGUS FALLS   FAIR      48  41  76 CALM      29.71S
ELBOW LAKE     FAIR      49  44  83 CALM      29.69S
MORRIS MN      FAIR      54  46  76 CALM      29.68S
STAPLES        FAIR      46  37  71 W3        29.68S
WHEATON        FAIR      54  43  66 N3        29.69S
$$
  *****  WEATHER ELSEWHERE ACROSS MINNESOTA  *****

CITY           SKY/WX    TMP DP  RH WIND       PRES   REMARKS
DULUTH         FAIR      47  35  63 SW8       29.68S
INTRNTL FALLS  FAIR      42  33  70 NE5       29.65R
ELY            FAIR      48  32  53 CALM      29.67S
CLOQUET        FAIR      46  34  61 S6        29.68S
BRAINERD       FAIR      49  39  68 S8        29.67F
HIBBING        FAIR      45  32  60 SE5       29.66F
ALEXANDRIA     FAIR      51  43  74 SW6       29.69R
SAINT CLOUD    FAIR      54  44  69 SW10      29.69R
MINNEAPOLIS    MOCLDY    60  44  55 SW9       29.71S
$$

  *****  WEATHER ACROSS SOUTH DAKOTA  *****

CITY           SKY/WX    TMP DP  RH WIND       PRES   REMARKS
SIOUX FALLS    FAIR      67  39  35 W5        29.71S
BROOKINGS      FAIR      62  41  46 SW8       29.70S
WATERTOWN      FAIR      57  42  57 SW8       29.69S
HURON          FAIR      68  35  29 SW3       29.66F
SISSETON         N/A     60  44  55 W5        29.66S
ABERDEEN       FAIR      63  37  38 S3        29.66F
MITCHELL       FAIR      69  36  29 W6        29.69F
PIERRE         FAIR      69  34  27 SE6       29.63F
MOBRIDGE       FAIR      60  35  39 SE9       29.61F
RAPID CITY     FAIR      70  27  20 W22G36    29.66S
$$

  *****  SOME WEATHER IN NEARBY STATES *****

CITY           SKY/WX    TMP DP  RH WIND       PRES   REMARKS
GLASGOW MT     LGT RAIN  40  37  89 W12       29.67R
GREAT FALLS MT FAIR      42  37  82 CALM      29.63S
CHEYENNE WY    FAIR      59  15  18 W22G37    29.98F
SCOTTSBLUFF NE FAIR      70  18  13 W29G43    29.83S
OMAHA NE       FAIR      70  37  29 S16       29.81F
DES MOINES IA  FAIR      67  33  28 SW12      29.85F
DAVENPORT IA   FAIR      63  45  51 W5        29.90S
CHICAGO IL     MOCLDY    64  51  62 SW6       29.89S
EAU CLAIRE WI  FAIR      56  37  49 S13       29.74F
LA CROSSE WI   FAIR      59  35  40 S12       29.80F
$$

  *****  SOME NATIONAL WEATHER *****

CITY           SKY/WX    TMP DP  RH WIND       PRES   REMARKS
LA GUARDIA NY  NOT AVBL
RALEIGH NC     CLOUDY    61  33  35 E3        30.14S
ATLANTA GA     LGT RAIN  63  60  90 E7        29.99F
NEW ORLEANS LA LGT RAIN  62  58  86 CALM      29.85F
OKLAHOMA CITY  FAIR      70  32  24 N9        29.93F
ALBUQUERQUE NM FAIR      68  30  24 NW9       30.21F
SALT LAKE CITY PTSUNNY   63  33  32 S28G38    29.88F
LOS ANGELES CA PTSUNNY   61  56  83 W12       30.25S
BOISE ID       FAIR      54  24  31 W18G28    29.91R
SEATTLE WA     CLOUDY    46  39  76 NE7       29.99R
$$

*** WEATHER ACROSS MANITOBA...SASKATCHEWAN AND ONTARIO ***
                ***ONTARIO***

CITY           SKY/WX    TMP DP  RH WIND       PRES   REMARKS
GERALDTON      MOCLDY    36  30  80 W8        29.66S
THUNDER BAY    MOCLDY    45  32  61 SW5       29.70S
SIOUX LOOKOUT  CLOUDY    37  30  75 W3        29.66R
TORONTO        MOCLDY    37  34  87 SE3       29.93F
BIG TROUT LK   CLOUDY    28  25  86 W20G30    29.48R WCI  15
PICKLE LAKE    FLURRIES  34  30  86 W13G18    29.59S WCI  25
DRYDEN         CLOUDY    36  32  87 NW3       29.66R
KENORA         DRIZZLE   34  30  86 CALM      29.67F
$$
                *** MANITOBA***

CITY           SKY/WX    TMP DP  RH WIND       PRES   REMARKS
BRANDON        CLOUDY    36  30  80 E5        29.66S
DAUPHIN        CLOUDY    37  30  75 W5        29.68R
ISLAND LAKE    FLURRIES  28  25  86 W13       29.59R WCI  18
PILOT MOUND      N/A     34  32  93 NE5         N/A
THE PAS        CLOUDY    34  23  64 W17G23    29.65R WCI  23
THOMPSON       FLURRIES  16  12  86 NW8       29.58R WCI   5
WINNIPEG       MOCLDY    32  32 100 W7        29.70R
LYNN LAKE      FLURRIES  14  10  85 NW8       29.60R WCI   3
GILLAM         FLURRIES  12   5  73 W15G21    29.51R WCI  -4
$$
                ***SASKATCHEWAN***

CITY           SKY/WX    TMP DP  RH WIND       PRES   REMARKS
ESTEVAN        PTSUNNY   36  34  93 NW8       29.63S
KINDERSLEY     MOSUNNY   34  25  69 NE5       29.72R
LLOYDMINSTER   CLOUDY    34  28  80 SW9       29.70R
PRINCE ALBERT  CLOUDY    34  23  64 W8        29.71R
REGINA         CLOUDY    34  30  86 N8        29.70R
YORKTON        CLOUDY    36  30  80 N6        29.69R
N. BATTLEFORD  CLOUDY    34  27  75 SW9       29.75R



USA.gov is the U.S. government's official web portal to all federal, state and local government web resources and services.